Temp
15 15 15 14 14 14 15 15 15 15 14 15 15 15 15 15 15 15 15 15 15 16 16 16 16 16 16 16 16 16 16 16 16 16 16 16 16 16 16 16 16 16 16
15 14 14 14 14 14 14 15 14 14 14 14 14 15 15 15 14 15 15 15 15 15 15 15 15 15 16 16 16 16 15 16 16 16 15 15 15 15 15 15 15 15 16
14 14 14 14 14 14 14 14 14 14 14 15 14 14 14 14 14 14 14 14 14 14 14 14 15 16 15 15 15 15 15 15 15 15 15 14 14 15 15 15 15 15 15
14 13 13 13 13 13 13 13 13 14 14 14 14 14 14 14 13 13 13 13 13 13 13 13 14 14 14 14 14 15 15 14 14 14 14 14 14 14 14 14 15 14 14
14 13 13 13 13 13 13 13 13 13 13 13 13 13 13 13 13 13 13 12 12 13 12 12 13 13 13 13 14 14 14 14 14 13 13 12 12 12 13 13 14 14 14
13 13 13 12 12 12 12 12 12 12 11 11 11 11 12 12 12 11 11 11 11 11 12 12 12 12 13 13 13 13 13 13 13 13 13 12 12 12 13 13 13 14 13
13 12 12 12 11 11 11 11 11 11 11 11 11 10 10 11 10 10 10 10 10 11 11 11 11 11 11 12 12 12 12 12 13 12 12 12 12 12 12 13 13 13 13
13 12 12 11 11 11 11 10 10 10 10 10 10 9 12 10 9 9 10 10 10 10 10 10 10 10 11 11 11 12 11 12 12 12 12 12 12 13 13 13 12 12 12
12 12 11 11 10 10 10 10 10 10 9 9 10 10 11 12 10 9 9 9 10 10 10 10 10 10 10 10 10 11 11 11 12 12 12 11 11 12 12 12 11 11 11
12 11 11 11 10 10 10 10 9 9 9 9 9 9 9 9 11 11 8 8 8 9 9 9 9 9 9 10 10 10 10 10 11 11 11 11 11 11 11 11 10 10 10
11 11 11 10 10 10 9 9 9 9 9 8 8 8 8 7 7 10 11 9 7 8 8 9 9 9 9 9 9 9 10 9 10 10 10 10 10 10 10 10 9 9 9
11 11 10 10 10 9 9 9 9 8 8 8 8 8 8 8 9 9 9 8 8 6 7 8 8 8 8 8 9 9 9 10 9 9 9 9 9 9 9 9 9 9 8
11 11 10 10 10 9 9 8 8 8 8 8 8 8 8 8 8 7 7 7 7 6 6 6 7 7 8 8 8 8 9 9 10 10 9 8 9 8 8 8 8 8 8
11 10 10 10 9 9 8 8 8 7 7 7 7 7 7 7 7 7 7 6 7 6 6 6 6 6 7 7 7 8 8 9 9 9 8 8 8 7 7 7 7 6 6
10 10 9 9 9 8 7 7 7 7 7 7 7 7 7 7 7 7 7 7 7 7 6 6 6 6 6 7 7 7 7 7 7 8 8 7 7 7 6 6 5 5 5
10 9 9 9 8 7 7 7 6 6 6 6 6 6 6 6 6 6 6 6 6 6 7 5 5 5 6 6 6 6 6 6 7 7 6 6 6 6 6 5 5 4 4
10 9 9 8 7 7 7 6 6 6 6 6 6 6 6 6 6 6 6 6 6 6 6 5 5 5 4 5 4 5 5 5 6 6 6 6 5 4 5 4 4 3 3
9 9 9 8 7 6 6 6 5 5 5 5 5 5 5 5 5 5 6 6 6 6 5 5 4 4 4 4 4 4 4 4 5 4 5 5 4 4 3 3 3 3 2
9 9 9 7 6 6 5 5 5 5 5 5 5 5 5 4 4 5 5 5 5 5 5 5 4 4 4 3 3 3 3 3 3 4 4 3 3 3 3 2 2 2 1
8 9 8 7 6 6 5 5 5 5 5 4 4 4 4 4 4 4 4 4 4 4 4 4 4 4 3 3 3 3 2 2 2 2 2 2 2 2 1 1 1 1 0
8 7 6 6 5 5 4 4 4 3 3 3 4 4 4 3 3 3 3 3 4 3 3 3 3 3 2 2 2 2 1 1 1 1 1 1 1 1 0 0 0 0 -1
6 6 5 5 4 4 4 3 3 3 3 3 3 3 3 2 3 3 3 3 3 3 3 3 3 2 2 2 2 1 1 -0 -0 -0 -0 -0 -0 -1 -0 -0 -0 -1 -1
6 5 5 4 4 3 3 3 2 2 2 2 1 2 2 2 2 2 2 2 2 2 2 3 2 2 2 2 1 1 0 0 -1 -1 -0 -1 -1 -1 -1 -1 -1 -1 -2
5 5 4 4 3 3 2 2 2 2 1 1 1 1 1 1 2 1 1 0 0 1 2 2 2 2 1 1 1 1 1 -0 -1 -1 -1 -1 -1 -2 -2 -2 -2 -2 -2
4 4 4 3 3 2 2 2 2 2 1 0 0 1 1 1 1 1 0 -1 -1 -1 -1 -0 -0 0 0 1 1 1 0 -1 -1 -3 -1 -2 -2 -3 -2 -3 -3 -3 -4
4 4 3 3 3 2 2 2 2 1 1 0 0 0 0 1 1 0 0 -0 -1 -2 -1 -1 -0 0 0 0 0 0 0 -0 -2 -3 -3 -3 -3 -3 -3 -4 -4 -4 -4
Height
842 842 843 844 844 844 844 844 843 844 844 844 844 844 843 843 843 843 842 841 841 840 840 838 839 840 840 837 840 841 841 840 839 839 840 841 841 841 842 842 843 844 844
840 840 842 842 843 843 842 843 842 843 843 843 843 843 843 843 843 842 841 840 840 839 838 836 836 836 836 837 837 838 837 837 837 837 838 839 839 839 840 842 842 843 843
839 839 840 841 841 841 841 841 841 841 842 843 843 842 842 841 840 840 840 839 839 838 838 837 833 833 832 834 835 834 833 834 835 836 837 837 839 839 840 841 840 842 841
838 839 839 840 840 840 839 839 839 839 839 840 840 840 840 840 839 839 839 838 837 837 837 835 834 834 832 831 833 834 832 832 832 834 836 835 837 838 838 840 839 840 841
837 837 838 838 839 839 839 838 837 837 837 837 837 837 838 838 838 837 837 836 836 836 835 835 835 833 833 832 830 832 832 830 831 832 833 830 831 836 836 838 838 837 841
835 836 837 838 838 838 838 838 837 837 837 837 836 836 836 836 836 836 835 835 836 835 836 835 835 833 834 831 829 831 831 831 831 831 834 833 833 836 834 838 837 835 839
832 833 834 835 836 837 837 837 837 837 837 836 836 835 834 834 834 834 834 835 835 835 836 836 835 835 834 833 830 829 831 833 832 832 833 833 834 835 836 835 834 835 837
832 832 833 834 834 834 834 834 834 835 835 835 835 834 833 834 833 832 833 834 835 835 837 837 836 836 836 834 831 832 831 833 833 832 833 833 833 832 833 832 834 835 835
830 830 830 832 832 833 833 832 832 832 833 833 832 833 833 829 831 831 832 833 833 834 836 837 837 837 837 834 833 833 831 833 832 833 833 832 833 831 831 831 833 835 835
828 829 829 830 831 831 830 830 830 831 831 831 832 831 831 831 830 829 831 831 831 832 834 836 837 837 837 836 835 833 833 835 831 832 832 834 835 834 832 832 834 836 837
826 827 827 828 829 829 829 829 829 829 829 830 830 830 830 830 829 829 827 829 831 832 832 834 836 836 838 838 837 835 835 833 832 833 833 836 837 837 835 834 836 838 839
822 823 824 824 825 825 826 826 827 826 826 827 827 828 828 827 827 827 827 827 828 831 831 832 834 836 838 839 837 835 835 835 834 836 836 838 836 840 836 836 839 838 839
819 820 821 821 821 822 823 824 825 824 824 824 824 825 825 825 826 826 825 825 827 829 831 832 834 836 837 838 837 834 835 835 836 838 839 838 837 837 837 838 839 839 839
815 815 816 817 818 820 821 821 822 822 822 822 823 824 824 824 824 823 824 825 827 828 830 832 835 837 836 836 835 834 834 835 836 837 839 837 838 838 837 839 840 839 841
810 811 812 812 814 816 817 819 820 821 821 821 821 821 822 823 823 823 822 824 824 825 828 831 834 836 835 835 835 834 834 835 837 837 838 838 838 837 837 840 840 841 840
806 807 808 809 810 813 814 815 817 818 817 819 820 820 821 821 821 819 822 823 823 823 826 831 833 833 834 834 833 833 834 836 836 836 837 837 838 838 839 840 840 839 839
802 803 803 805 807 809 811 813 815 815 816 816 816 818 817 820 820 818 818 821 820 822 828 831 831 832 832 832 832 833 834 835 836 836 837 837 837 838 838 840 840 841 841
796 797 799 801 804 807 809 810 811 812 814 814 817 817 815 817 816 815 814 816 819 822 828 830 830 830 830 831 832 833 834 835 835 836 837 836 837 838 839 840 842 842 842
793 793 795 799 802 803 805 807 808 810 811 812 813 813 813 812 813 813 813 815 817 821 826 826 826 827 828 830 831 832 833 834 835 836 837 838 838 839 840 841 843 841 842
790 792 794 797 799 801 803 805 806 807 806 806 808 809 809 809 810 811 812 814 815 819 821 823 823 825 826 828 830 831 833 834 835 836 837 838 839 840 841 843 843 843 844
788 790 793 795 798 799 802 803 803 803 803 802 803 804 806 807 808 810 810 812 813 816 817 819 821 822 824 826 828 830 832 833 834 835 836 837 839 840 842 844 844 845 845
786 788 791 793 796 797 799 801 802 802 802 802 800 802 803 805 807 808 808 809 811 813 815 816 819 820 822 823 826 828 830 832 834 834 836 837 839 841 843 844 845 845 845
785 787 789 792 794 795 797 797 797 799 799 801 800 801 802 804 805 806 807 809 810 811 812 814 816 817 819 822 824 826 828 830 832 834 836 838 840 842 843 843 845 845 846
782 784 787 790 791 792 793 794 796 797 797 798 798 799 800 801 802 804 806 808 810 810 811 812 815 817 819 821 823 825 827 829 833 834 835 838 840 841 842 844 845 845 845
781 782 784 787 788 789 791 793 794 793 795 797 796 797 798 800 802 804 806 808 810 811 812 813 815 817 820 822 824 825 827 830 833 834 835 837 838 840 841 842 843 843 843
779 780 781 783 784 787 788 790 792 791 792 794 795 796 797 799 801 803 805 807 809 811 813 815 816 819 821 822 824 826 827 828 830 833 835 836 838 839 841 841 841 842 842
Wind_Speed
2 3 4 5 5 6 7 8 8 10 8 6 5 6 6 5 5 6 5 6 7 6 6 6 6 7 8 8 9 9 10 11 11 13 13 12 10 9 8 8 8 8 8
3 2 4 4 5 5 5 7 7 8 8 6 6 5 5 5 6 7 8 8 8 8 9 7 5 6 8 10 9 11 10 10 9 9 9 10 10 8 6 5 5 6 6
2 3 4 5 7 8 8 6 6 7 8 9 9 10 10 10 11 11 12 13 14 10 9 10 10 10 7 6 6 8 10 9 9 8 8 8 8 6 4 4 2 6 2
2 3 3 4 5 6 6 7 7 7 8 9 9 10 10 10 8 8 8 8 8 8 8 6 6 6 4 2 2 5 5 8 8 9 11 12 9 5 4 4 3 1 1
2 4 4 5 6 6 6 6 7 7 7 7 7 7 7 7 7 7 8 8 8 7 7 5 3 2 3 3 3 1 4 5 5 6 2 2 4 3 6 5 3 3 4
4 5 5 5 6 6 7 6 6 6 6 6 6 6 5 5 5 5 5 5 5 4 4 4 3 2 3 3 4 2 2 4 8 7 5 5 5 5 4 5 4 4 3
5 5 5 5 6 6 6 6 5 5 5 5 4 3 3 4 3 2 1 0 1 2 2 3 3 3 3 2 4 4 4 3 4 6 6 6 6 5 5 4 4 8 11
6 6 6 6 7 6 6 5 4 5 4 4 2 1 2 2 2 3 3 3 2 4 1 2 3 3 2 3 4 4 5 4 4 4 4 4 4 4 5 5 7 9 10
7 6 6 6 6 6 6 6 6 6 5 5 6 3 2 3 2 3 4 4 4 3 3 2 1 2 2 4 5 6 8 7 5 3 4 5 7 8 10 11 12 15 15
7 7 7 7 7 7 6 6 6 7 7 6 6 9 9 3 2 2 4 5 4 3 2 2 2 3 3 4 7 9 9 9 11 9 11 13 13 14 17 17 16 15 14
8 8 9 8 8 8 8 7 7 7 8 8 8 5 7 7 6 4 2 4 4 2 2 3 4 6 6 7 8 9 8 11 10 10 10 12 11 10 11 12 11 11 11
9 10 10 9 9 9 9 9 9 8 8 9 10 11 8 4 5 5 2 2 4 2 1 1 5 8 9 8 8 7 6 6 6 7 7 8 9 7 10 9 8 10 10
10 10 10 10 10 10 10 9 9 9 9 10 9 10 10 11 9 6 3 3 2 2 3 4 6 8 9 8 6 5 4 4 2 1 3 5 6 8 10 9 8 9 9
10 10 11 10 10 11 11 10 11 10 10 10 9 9 8 7 7 7 4 5 2 2 3 3 5 7 8 7 5 4 2 2 1 2 4 3 5 9 10 10 9 9 9
11 10 11 11 11 11 11 11 11 11 9 9 9 8 7 6 5 4 4 6 4 3 3 7 5 7 7 6 4 3 3 3 4 6 5 3 5 6 8 7 8 9 8
11 10 10 11 11 11 11 11 12 11 11 10 10 9 8 7 6 5 3 3 3 3 2 4 6 10 8 6 4 3 3 3 4 4 5 7 8 7 5 7 7 7 9
10 8 8 9 11 11 11 12 12 11 11 11 11 12 9 9 9 8 7 5 3 2 2 3 8 9 7 6 5 4 5 4 4 5 4 6 7 5 5 5 6 8 10
10 8 8 9 10 11 11 12 11 12 12 12 12 12 12 12 11 11 7 7 6 6 5 8 8 9 7 7 6 6 5 5 5 5 5 10 7 8 8 6 7 10 8
9 6 7 9 10 11 11 11 11 11 12 13 14 16 16 13 12 10 10 10 10 10 10 7 5 8 7 9 8 7 6 5 7 9 10 10 9 7 5 8 9 9 7
9 7 8 8 10 9 10 10 11 13 16 17 18 19 18 15 14 11 12 12 11 11 10 7 6 6 7 10 9 7 6 6 7 9 10 9 7 9 8 9 6 5 4
8 9 9 9 9 9 10 10 11 10 12 11 13 15 13 13 12 13 14 12 11 12 10 8 6 5 7 7 8 7 6 7 6 7 6 7 6 6 11 8 6 4 3
11 11 11 10 9 9 9 11 10 12 12 9 7 10 9 10 10 12 11 9 10 10 10 8 8 8 8 7 9 10 11 7 3 6 7 6 8 9 9 7 3 2 1
11 12 11 11 7 8 8 8 8 9 9 8 9 11 12 11 9 10 9 9 7 7 8 10 11 9 10 10 11 11 11 7 4 6 7 5 7 7 7 6 2 1 1
14 15 14 13 9 7 9 6 9 7 7 10 9 10 10 10 14 14 10 8 6 5 6 7 9 9 8 10 10 9 9 10 10 7 5 3 5 5 5 6 4 2 3
14 15 16 14 10 9 9 9 9 10 3 4 3 5 7 11 14 14 11 12 12 15 14 12 11 11 11 10 9 11 14 9 3 2 3 3 3 3 4 6 6 5 2
12 15 16 14 10 10 8 9 9 10 5 5 4 5 6 11 16 15 14 13 14 13 13 14 14 13 11 10 8 7 8 6 6 3 2 3 4 3 3 3 4 3 3
Wind_Direction
271 286 303 312 315 322 320 330 333 336 326 304 294 297 303 306 304 301 293 278 271 276 271 266 293 305 302 285 265 270 269 257 250 246 246 239 229 225 232 237 238 237 241
244 252 274 286 287 290 304 310 313 311 313 307 289 283 298 304 307 306 302 297 293 288 278 273 290 285 306 286 256 245 253 258 250 240 233 228 226 220 225 229 238 237 239
253 259 273 277 287 293 296 307 305 295 296 288 286 284 284 290 296 296 290 288 283 286 289 279 273 280 276 304 289 252 233 235 233 214 198 178 168 169 184 202 199 256 235
295 294 285 285 287 287 294 290 281 284 280 274 274 276 284 288 286 289 294 297 298 283 275 274 267 259 237 205 266 267 247 217 213 213 211 195 174 169 205 239 203 257 278
313 303 295 293 290 294 293 288 287 281 277 276 277 276 276 274 275 276 286 293 293 281 267 264 257 244 225 163 113 226 236 212 185 143 182 78 83 258 245 238 249 240 252
293 300 293 283 282 290 293 297 298 295 296 284 271 268 274 267 263 264 280 294 289 273 248 230 198 178 219 176 117 83 190 168 141 130 140 134 144 184 171 202 201 161 172
285 288 281 276 281 293 298 299 300 301 296 291 282 272 254 243 232 231 217 108 113 116 147 184 182 178 177 181 163 140 80 85 137 138 136 143 156 167 173 198 173 151 145
290 288 291 283 281 285 286 284 284 288 278 263 226 220 243 216 205 192 166 142 109 114 70 117 131 133 138 114 93 130 108 95 98 106 122 123 138 143 179 154 145 140 127
278 283 285 283 280 279 276 270 273 268 259 262 232 221 197 235 204 204 199 190 185 170 201 207 171 129 111 114 115 112 115 104 110 121 117 109 106 113 110 110 110 102 98
272 276 280 279 279 278 274 270 269 268 259 249 249 237 237 216 227 195 205 200 169 160 187 229 219 183 149 129 120 118 120 95 76 94 98 91 82 78 81 87 89 89 83
273 273 273 276 278 277 277 275 268 264 261 255 240 233 229 231 230 226 208 176 185 190 223 230 211 186 162 144 131 119 115 81 75 72 85 82 74 74 83 80 81 82 78
262 259 262 269 273 275 274 269 265 262 260 256 249 237 227 211 211 201 202 166 181 123 79 198 191 178 168 158 144 128 109 94 78 69 76 71 70 81 86 87 86 90 78
263 260 260 262 267 269 268 266 264 260 255 251 246 242 238 238 236 222 191 141 150 147 120 95 133 171 170 167 158 131 131 119 81 52 102 92 76 93 89 89 89 82 76
264 260 253 256 264 264 262 263 261 256 252 248 241 236 230 223 215 210 193 162 140 132 152 146 152 168 163 167 156 138 120 154 196 201 161 119 95 114 104 98 89 81 81
260 255 248 254 257 256 257 260 258 256 251 246 234 223 216 208 197 192 196 200 173 158 169 182 169 177 170 171 158 138 114 126 124 124 162 137 127 119 119 98 89 90 78
251 251 248 251 252 252 252 251 252 247 239 235 227 211 208 203 196 166 172 187 190 139 152 169 190 179 177 172 163 149 131 140 139 132 136 134 136 133 126 106 103 87 74
244 245 250 250 247 245 246 247 251 248 239 228 220 215 200 211 207 191 181 184 166 142 185 187 169 174 164 163 154 153 148 128 124 119 144 161 154 138 111 105 94 91 100
227 231 247 248 241 240 243 247 249 246 240 233 225 221 216 222 220 207 198 197 201 192 219 190 169 167 168 179 169 164 142 127 124 106 126 146 154 126 111 94 94 112 97
216 235 241 237 232 235 241 244 243 239 241 238 235 236 232 223 221 212 199 200 196 200 221 203 170 178 169 174 162 158 151 150 140 138 125 120 112 106 95 109 117 115 93
205 222 227 224 225 233 242 236 226 241 253 247 249 245 234 217 220 213 212 203 190 196 206 197 181 172 177 184 183 181 165 163 151 149 141 134 125 110 102 115 120 106 74
204 204 206 211 217 219 227 240 254 253 258 249 253 244 219 229 229 226 211 202 198 197 195 192 189 171 170 169 186 190 180 171 147 152 143 130 139 139 121 112 103 108 65
203 203 202 200 210 224 251 263 255 254 247 230 231 232 226 224 231 210 203 199 206 206 202 191 193 188 185 185 187 182 168 159 155 164 159 139 144 140 135 127 120 86 46
203 200 199 196 210 262 244 221 234 234 244 254 238 243 241 212 205 193 188 189 193 197 199 196 195 192 187 194 185 172 172 165 138 143 156 148 160 164 163 155 137 141 73
205 204 204 204 212 232 212 237 215 241 253 242 238 228 222 224 199 187 164 146 139 148 165 181 197 190 186 171 175 173 169 143 123 110 145 135 166 171 179 175 133 128 91
213 215 214 212 216 205 223 209 213 213 224 211 206 224 226 218 201 189 170 142 127 111 108 125 130 136 138 140 142 150 145 141 122 114 98 136 151 155 165 174 175 151 114
230 229 226 221 216 215 215 207 208 196 220 218 216 235 219 218 201 191 174 160 141 138 131 125 121 129 132 135 140 151 159 159 135 123 100 139 151 154 147 158 175 183 219